Wind_Speed
7 10 15 23 8 7 9 14 14 16 10 7 6 4 3 6 9 8 8 10 12 10 9 6 2 7 6 9 8 16 9 10 8 8 9 8 10 11 10 9 10 11 13 14 15
10 7 10 7 4 5 11 15 14 15 10 6 4 3 4 8 10 10 10 12 10 10 6 2 2 7 14 13 8 22 24 17 8 4 10 14 15 14 16 16 15 15 14 15 15
14 13 11 9 6 11 14 14 13 14 9 4 1 4 6 10 11 12 13 11 12 8 5 2 9 13 20 8 9 12 26 33 26 21 28 23 16 13 15 17 17 20 24 24 19
14 17 12 16 17 11 14 11 14 13 7 2 3 7 8 11 14 15 15 13 12 8 5 6 11 12 22 16 24 14 19 17 21 24 25 22 26 23 13 11 15 30 39 35 34
11 12 18 15 15 13 12 12 12 10 4 1 4 9 10 11 13 14 15 17 14 10 5 6 5 17 15 15 15 16 15 16 20 21 22 26 25 24 22 26 30 41 37 38 32
11 12 18 16 14 14 12 9 9 6 1 4 7 8 11 11 13 14 16 16 13 7 15 7 17 12 7 12 18 20 18 19 21 23 23 27 26 27 27 24 27 29 36 37 27
9 8 10 14 16 17 10 10 7 3 4 8 9 11 12 12 14 14 17 17 11 15 11 16 11 9 8 5 12 16 18 18 23 23 25 26 27 32 24 23 29 32 34 29 15
8 7 8 13 12 15 9 7 4 5 7 10 11 12 11 10 12 13 13 11 7 13 17 10 7 3 2 7 15 16 18 24 26 27 30 32 34 33 27 32 30 39 30 24 17
8 8 7 10 11 12 10 6 7 10 10 12 14 15 13 11 8 6 3 8 10 15 10 10 7 2 7 11 15 15 15 19 24 31 36 40 37 29 31 34 34 38 26 18 12
7 7 6 8 10 10 9 9 10 11 12 14 16 18 16 14 9 7 9 13 17 17 10 6 8 10 13 16 16 17 21 25 31 35 29 32 30 29 30 31 28 32 22 7 10
7 5 7 10 11 11 8 12 13 13 9 11 12 11 14 14 13 10 10 14 10 7 5 11 11 14 21 15 16 20 24 30 32 33 38 36 29 33 29 25 32 33 20 28 20
7 5 10 12 10 13 11 10 10 13 14 11 9 8 11 10 10 10 8 11 9 3 3 8 12 11 16 17 19 25 28 33 31 32 35 31 35 32 26 25 26 24 35 27 19
6 5 11 14 13 12 9 11 9 12 10 11 12 11 11 10 8 8 8 5 8 9 13 16 10 15 18 18 22 24 27 29 26 29 31 33 29 26 25 24 26 21 20 21 6
8 10 12 13 14 9 8 10 11 11 11 11 12 12 11 11 12 11 12 5 2 8 9 8 14 21 22 22 24 25 29 27 26 28 26 26 27 25 26 28 14 12 24 19 16
10 14 13 14 10 12 6 9 14 12 15 14 11 17 16 10 10 9 8 4 2 10 14 15 19 26 26 27 26 22 19 23 23 23 24 26 25 24 27 20 21 24 17 18 15
10 13 18 16 11 8 11 13 16 17 14 14 14 15 15 9 5 4 3 8 13 17 20 20 23 27 29 32 30 25 22 20 22 26 26 28 26 28 20 18 13 14 15 12 15
14 13 13 15 11 12 14 17 21 21 21 22 21 15 9 5 7 4 2 8 15 18 20 26 27 29 28 31 29 25 21 20 25 25 25 25 25 22 19 13 15 19 17 15 20
13 14 12 15 11 16 17 20 22 22 22 19 16 12 9 7 8 8 7 10 18 22 24 27 31 30 30 27 22 20 19 19 25 28 29 28 24 21 19 19 19 20 19 19 21
13 15 10 13 15 18 20 22 21 19 20 16 13 10 11 13 12 11 14 19 22 22 22 30 35 33 29 24 24 21 21 19 25 27 29 28 28 22 20 20 17 21 22 23 23
13 15 20 16 19 22 22 26 22 21 19 13 14 11 12 17 19 18 22 23 27 31 34 34 32 28 23 21 22 20 19 22 24 27 27 26 24 20 21 19 24 26 26 29 31
14 9 19 19 21 27 23 28 23 22 19 15 17 13 12 14 17 22 25 28 32 36 26 27 27 22 18 17 17 21 20 19 20 21 22 24 22 21 22 24 27 31 33 33 33
15 18 15 15 22 28 25 30 25 22 23 17 23 20 20 24 25 19 22 29 31 27 26 27 23 17 16 16 15 16 16 17 19 21 22 22 23 23 25 29 31 33 35 33 29
17 17 17 18 25 32 27 27 29 21 17 17 9 10 17 21 26 34 29 20 21 22 26 24 19 17 18 16 15 17 17 17 20 22 24 25 26 27 29 33 34 37 34 32 31
21 22 20 19 23 29 31 30 23 15 14 13 11 13 17 18 18 21 19 14 18 21 21 22 20 17 15 16 18 18 20 21 23 25 24 26 30 32 34 35 35 37 33 29 32
20 18 18 20 22 27 27 24 24 17 13 11 9 12 15 15 15 17 15 13 14 16 18 17 18 17 17 18 19 21 21 21 24 27 27 31 36 36 37 35 31 22 33 39 35
20 19 18 17 22 23 22 19 20 22 14 11 9 9 11 15 14 17 16 16 15 14 14 15 17 18 18 19 21 20 20 22 26 27 30 35 34 37 34 37 29 30 33 34 52
22 18 19 14 19 20 21 20 23 19 14 13 9 7 10 13 15 18 18 19 20 16 15 19 20 20 19 21 24 23 22 27 33 33 36 35 38 37 35 34 38 38 40 42 47
Wind_Direction
205 197 217 229 282 312 314 318 320 324 315 306 289 268 214 185 157 166 165 175 188 197 196 194 221 28 66 4 30 53 43 28 69 55 51 40 20 20 17 357 342 344 343 342 333
215 209 207 196 247 319 325 334 321 323 317 314 298 251 194 165 155 155 169 176 189 188 189 166 81 48 37 323 65 42 41 34 343 36 18 10 359 359 354 347 341 337 338 331 326
239 230 244 220 257 305 306 320 329 327 321 309 235 174 171 162 159 156 169 178 186 182 172 92 74 67 49 3 8 33 42 46 40 36 8 17 4 335 344 341 334 334 335 321 316
243 232 244 258 267 265 297 302 320 332 306 274 173 157 162 165 164 157 159 184 181 173 170 93 62 48 51 42 45 43 24 32 33 20 9 15 1 345 326 319 342 342 335 329 304
243 244 235 251 251 264 283 309 315 322 293 174 147 153 158 166 167 163 168 185 175 182 157 78 18 67 46 45 52 47 38 34 15 3 9 10 8 359 335 314 302 321 316 317 302
251 269 241 242 255 267 291 307 312 302 267 146 146 162 164 172 167 165 179 173 178 113 79 80 70 79 56 24 26 28 32 9 1 3 358 360 360 347 343 339 327 321 317 312 299
238 280 242 239 253 270 304 298 294 269 182 154 150 154 162 168 166 174 178 170 183 88 104 108 84 58 67 7 349 14 4 356 347 345 345 348 346 341 329 335 335 322 309 310 292
231 260 258 241 252 265 296 286 244 198 181 157 158 153 153 159 159 185 180 176 125 122 127 130 146 168 338 5 356 355 352 340 339 336 334 331 330 327 325 329 322 322 315 294 283
232 251 266 224 234 256 284 243 201 192 175 166 163 157 153 148 158 168 118 125 144 150 158 193 210 270 4 358 346 339 344 329 325 329 329 322 324 325 329 328 327 316 316 295 270
222 251 257 219 214 244 261 211 198 196 178 169 170 170 161 149 127 119 123 138 145 163 198 253 316 342 345 329 330 340 337 319 325 326 331 336 327 321 324 328 331 325 285 44 343
222 236 235 210 211 228 230 202 188 183 173 185 182 183 172 164 149 145 139 154 177 228 14 344 325 343 343 318 321 322 338 324 316 311 309 313 325 323 327 330 329 322 276 343 14
228 229 221 210 211 218 228 191 184 165 160 166 178 182 170 176 172 153 168 164 197 162 306 313 344 334 337 358 345 332 329 318 317 317 321 317 323 325 325 325 320 317 317 354 356
219 202 200 195 215 210 204 167 153 170 171 157 155 164 184 180 164 154 137 189 186 213 277 292 343 333 334 334 332 332 324 331 322 323 320 324 326 329 328 331 320 309 335 345 336
201 188 199 211 211 217 217 162 168 170 170 162 154 164 179 165 110 109 83 109 176 281 272 337 338 331 338 334 336 325 331 327 321 317 325 338 329 331 331 331 349 335 328 339 339
202 198 192 200 201 168 212 184 162 164 178 172 155 163 158 166 138 100 66 111 12 343 346 334 327 319 327 327 334 326 325 320 316 321 324 324 335 328 319 316 317 320 333 333 320
201 203 221 208 184 202 192 168 156 161 161 139 130 155 168 148 119 149 84 349 356 339 330 320 322 316 318 319 328 332 330 315 312 324 326 319 321 323 318 322 339 338 318 318 312
204 216 224 188 205 183 176 167 155 154 164 149 141 136 145 173 215 232 234 307 319 328 317 310 308 307 314 313 319 325 321 310 312 324 316 321 323 324 325 335 332 328 318 317 327
209 224 237 187 189 184 173 162 167 171 164 162 149 151 193 206 242 268 302 290 302 309 311 307 307 301 304 311 316 315 310 306 320 323 320 325 325 326 323 318 316 315 313 307 316
212 218 217 195 186 176 165 170 180 187 166 162 164 192 227 250 264 263 276 283 296 298 307 312 309 314 318 318 319 321 317 320 323 324 326 326 326 323 315 307 307 309 313 319 321
216 217 189 197 183 172 175 178 192 190 184 195 209 215 241 261 260 270 286 289 296 300 302 300 303 306 308 305 313 318 322 322 321 321 320 322 325 322 317 310 306 315 319 319 323
209 201 180 194 181 176 189 192 200 196 202 206 224 217 240 259 259 274 284 291 294 297 301 303 304 301 293 292 303 306 311 311 310 318 320 316 322 325 323 320 316 316 317 317 322
199 177 188 192 183 186 197 199 203 206 206 219 234 234 231 244 258 268 280 286 287 297 304 302 303 297 287 293 302 296 300 314 316 319 318 316 324 323 320 320 318 317 316 313 322
190 177 195 199 189 194 204 214 213 225 222 242 239 241 244 260 262 262 279 300 294 298 299 302 305 304 295 301 306 316 321 312 312 316 321 324 324 324 323 323 326 322 313 308 312
189 190 198 198 194 195 209 224 231 239 238 246 281 271 266 263 273 286 292 291 297 304 303 304 312 310 312 316 322 320 317 319 321 325 323 323 324 325 328 328 328 322 318 305 308
190 201 203 196 198 199 210 222 241 224 237 283 259 274 284 293 298 300 301 303 308 297 300 305 309 312 319 322 321 315 316 321 322 320 320 326 327 328 328 328 331 306 307 316 319
202 194 205 205 202 211 220 218 212 237 278 275 266 275 294 298 305 305 307 316 314 295 297 310 311 314 322 320 321 311 306 327 332 327 322 325 326 327 328 323 325 314 317 310 308
201 197 215 218 219 215 225 236 250 248 251 289 294 291 291 301 308 311 318 322 316 306 294 303 309 314 322 328 326 314 311 327 327 330 332 328 327 325 322 315 316 312 310 311 311
Height
5897 5896 5896 5897 5896 5895 5895 5893 5892 5892 5890 5888 5887 5886 5885 5885 5885 5885 5886 5887 5886 5886 5887 5888 5890 5890 5892 5894 5895 5890 5888 5885 5885 5884 5885 5884 5884 5883 5882 5882 5881 5879 5877 5877 5875
5894 5895 5895 5895 5895 5894 5894 5892 5892 5890 5888 5888 5887 5886 5885 5886 5886 5886 5887 5886 5887 5887 5890 5891 5892 5893 5897 5895 5895 5892 5891 5890 5889 5889 5889 5886 5883 5881 5880 5879 5880 5879 5876 5874 5872
5892 5893 5893 5893 5892 5893 5893 5892 5891 5889 5887 5887 5887 5886 5886 5887 5887 5887 5888 5887 5888 5890 5892 5893 5895 5899 5899 5896 5894 5893 5893 5889 5886 5888 5885 5883 5883 5880 5878 5877 5876 5876 5877 5874 5870
5889 5890 5891 5891 5892 5892 5892 5891 5890 5888 5887 5886 5887 5886 5887 5888 5889 5888 5888 5889 5890 5891 5893 5894 5896 5897 5899 5897 5896 5895 5893 5891 5889 5887 5885 5883 5880 5878 5877 5876 5873 5870 5868 5865 5865
5886 5887 5889 5890 5890 5890 5890 5890 5889 5887 5887 5886 5887 5887 5888 5889 5890 5889 5890 5891 5891 5892 5893 5896 5896 5896 5898 5896 5896 5895 5892 5890 5887 5885 5884 5882 5880 5878 5877 5874 5869 5864 5861 5859 5856
5883 5884 5885 5886 5887 5888 5888 5888 5888 5887 5886 5887 5887 5888 5889 5890 5890 5890 5892 5891 5891 5895 5898 5898 5897 5899 5897 5894 5893 5893 5891 5888 5885 5884 5882 5881 5878 5877 5874 5871 5867 5862 5856 5851 5848
5881 5882 5883 5885 5885 5886 5886 5886 5886 5886 5886 5886 5887 5888 5890 5891 5891 5893 5893 5893 5892 5897 5898 5899 5898 5897 5895 5894 5889 5890 5890 5886 5883 5883 5880 5878 5876 5874 5869 5865 5861 5857 5851 5846 5843
5880 5880 5881 5882 5883 5884 5884 5884 5885 5885 5886 5887 5888 5889 5891 5892 5892 5895 5894 5894 5896 5898 5898 5898 5896 5895 5895 5894 5892 5887 5885 5882 5881 5879 5877 5874 5875 5871 5868 5862 5855 5850 5845 5843 5839
5877 5879 5879 5880 5882 5882 5883 5883 5884 5884 5885 5887 5888 5889 5891 5892 5894 5896 5897 5897 5897 5897 5897 5896 5896 5895 5894 5893 5891 5889 5886 5882 5879 5875 5874 5871 5869 5867 5862 5857 5851 5844 5840 5835 5834
5876 5877 5878 5878 5880 5881 5881 5882 5883 5884 5886 5887 5888 5890 5891 5893 5895 5896 5896 5897 5897 5896 5895 5896 5895 5896 5893 5891 5889 5888 5885 5879 5875 5875 5871 5867 5865 5862 5859 5854 5847 5839 5834 5833 5831
5875 5876 5876 5877 5879 5879 5880 5879 5882 5886 5886 5889 5891 5891 5893 5894 5894 5896 5895 5895 5895 5896 5896 5895 5895 5893 5891 5889 5887 5886 5882 5878 5875 5872 5869 5866 5863 5859 5856 5853 5846 5838 5827 5825 5827
5873 5874 5874 5876 5877 5877 5878 5881 5884 5887 5887 5888 5891 5893 5894 5895 5895 5897 5895 5896 5898 5898 5898 5896 5893 5891 5890 5886 5884 5882 5879 5875 5871 5869 5864 5862 5858 5853 5850 5848 5846 5841 5830 5826 5825
5871 5872 5872 5874 5875 5878 5880 5883 5886 5888 5890 5891 5892 5894 5895 5896 5896 5896 5896 5897 5899 5899 5898 5895 5892 5889 5887 5885 5882 5879 5875 5872 5869 5865 5861 5857 5854 5851 5848 5845 5842 5838 5834 5829 5824
5870 5871 5872 5873 5877 5879 5882 5884 5886 5889 5892 5893 5894 5895 5896 5896 5896 5897 5897 5899 5898 5899 5897 5894 5891 5889 5886 5883 5881 5877 5872 5870 5866 5862 5858 5855 5850 5846 5844 5842 5839 5836 5833 5828 5822
5869 5870 5872 5874 5876 5880 5883 5884 5886 5888 5891 5893 5894 5894 5895 5897 5897 5896 5896 5898 5897 5896 5896 5894 5891 5889 5885 5882 5881 5877 5872 5868 5863 5860 5855 5851 5848 5844 5842 5838 5835 5832 5828 5824 5819
5867 5869 5871 5874 5876 5879 5881 5884 5886 5891 5891 5892 5893 5896 5896 5896 5895 5896 5895 5895 5894 5894 5893 5892 5890 5886 5883 5878 5876 5871 5869 5865 5861 5857 5853 5849 5847 5842 5838 5835 5831 5828 5823 5821 5818
5866 5868 5870 5873 5877 5878 5880 5884 5888 5888 5889 5889 5889 5891 5893 5894 5894 5894 5894 5893 5894 5894 5892 5889 5887 5884 5881 5878 5873 5868 5865 5862 5860 5855 5852 5848 5843 5839 5834 5830 5828 5824 5821 5818 5814
5865 5867 5870 5872 5876 5878 5881 5884 5886 5885 5886 5888 5890 5891 5890 5891 5892 5893 5892 5893 5894 5892 5890 5887 5883 5880 5877 5874 5870 5866 5863 5860 5854 5850 5846 5842 5839 5836 5832 5828 5825 5821 5817 5814 5809
5864 5866 5869 5874 5875 5879 5882 5884 5883 5884 5887 5888 5890 5891 5890 5890 5892 5891 5891 5891 5891 5890 5889 5883 5876 5873 5870 5866 5863 5861 5857 5856 5851 5846 5841 5838 5835 5832 5829 5825 5820 5817 5812 5808 5804
5862 5864 5870 5872 5875 5878 5881 5880 5882 5885 5887 5889 5889 5890 5892 5891 5891 5891 5891 5890 5888 5886 5884 5879 5875 5872 5867 5862 5860 5857 5855 5852 5848 5844 5840 5836 5833 5830 5825 5820 5816 5812 5807 5802 5797
5861 5864 5869 5871 5875 5877 5879 5880 5882 5886 5888 5890 5889 5889 5890 5891 5891 5890 5889 5888 5885 5880 5878 5873 5873 5869 5864 5861 5859 5855 5852 5850 5847 5843 5839 5835 5833 5827 5822 5817 5813 5808 5802 5797 5792
5861 5865 5869 5870 5874 5876 5877 5879 5881 5883 5887 5889 5888 5888 5890 5889 5888 5888 5886 5885 5882 5875 5871 5869 5866 5864 5862 5859 5856 5854 5851 5847 5844 5840 5835 5831 5828 5822 5817 5813 5808 5803 5797 5791 5787
5861 5865 5867 5869 5872 5873 5876 5878 5880 5884 5887 5887 5885 5885 5885 5885 5884 5884 5883 5882 5876 5872 5867 5864 5863 5861 5858 5857 5853 5850 5847 5844 5840 5836 5830 5826 5822 5817 5812 5807 5801 5795 5789 5784 5780
5859 5863 5865 5868 5871 5871 5873 5875 5880 5883 5885 5883 5881 5880 5880 5880 5880 5879 5879 5877 5873 5867 5863 5861 5859 5858 5856 5852 5850 5846 5843 5839 5835 5831 5826 5823 5817 5812 5806 5799 5793 5786 5782 5777 5773
5858 5863 5865 5866 5868 5870 5872 5877 5879 5882 5883 5881 5879 5878 5877 5876 5875 5875 5873 5872 5868 5864 5862 5860 5858 5856 5853 5849 5847 5843 5839 5836 5832 5828 5822 5817 5810 5804 5798 5793 5787 5780 5776 5771 5765
5857 5861 5863 5867 5868 5872 5873 5876 5878 5881 5882 5880 5878 5877 5874 5872 5872 5870 5869 5868 5866 5864 5861 5858 5856 5854 5851 5847 5844 5840 5836 5832 5828 5823 5817 5811 5805 5799 5793 5787 5783 5779 5771 5766 5757
5856 5860 5863 5868 5868 5871 5872 5875 5876 5878 5879 5880 5876 5875 5873 5870 5868 5865 5865 5863 5862 5861 5858 5856 5853 5850 5846 5842 5838 5835 5831 5827 5823 5817 5811 5805 5800 5793 5788 5783 5776 5771 5764 5757 5749